Date,TemperatureHighF,TemperatureAvgF,TemperatureLowF,DewpointHighF,DewpointAvgF,DewpointLowF,HumidityHigh,HumidityAvg,HumidityLow,PressureMaxIn,PressureMinIn,WindSpeedMaxMPH,WindSpeedAvgMPH,GustSpeedMaxMPH,PrecipitationSumIn
2013-1-1,80.0,71.8,65.0,68.0,60.2,53.0,90,69,40,0.00,40.00,21,7,41,0.00
2013-1-2,76.0,71.7,68.0,64.0,57.6,49.0,85,62,45,0.00,40.00,18,8,33,0.00
2013-1-3,76.0,70.9,66.0,64.0,59.3,54.0,81,67,56,0.00,40.00,15,8,41,0.00
2013-1-4,77.0,72.0,68.0,63.0,56.8,53.0,67,59,49,0.00,40.00,29,19,53,0.00
2013-1-5,82.0,72.8,69.0,57.0,51.2,43.0,54,47,38,0.00,40.00,34,25,71,0.00
2013-1-6,76.0,71.6,66.0,63.0,56.2,43.0,73,59,35,0.00,40.00,31,10,52,0.00
2013-1-7,77.0,71.7,68.0,64.0,55.4,43.0,80,58,38,0.00,40.00,30,11,40,0.00
2013-1-8,77.0,70.1,65.0,64.0,56.8,49.0,83,64,47,0.00,40.00,12,7,22,0.00
2013-1-9,76.0,70.8,65.0,64.0,60.2,56.0,82,70,51,0.00,40.00,11,7,26,0.00
2013-1-10,78.0,71.5,66.0,61.0,56.4,51.0,73,59,45,0.00,40.00,12,7,29,0.00
2013-1-11,79.0,71.5,65.0,62.0,56.6,53.0,79,60,44,0.00,40.00,23,8,36,0.00
2013-1-12,76.0,69.7,64.0,65.0,58.7,51.0,85,69,53,0.00,40.00,11,6,20,0.00
2013-1-13,77.0,70.5,64.0,63.0,58.4,53.0,80,66,54,0.00,40.00,8,5,13,0.00
2013-1-14,77.0,70.9,65.0,67.0,61.4,56.0,91,72,64,0.00,40.00,12,6,19,0.01
2013-1-15,78.0,70.7,67.0,68.0,65.1,61.0,96,83,59,0.00,40.00,9,4,15,0.04
2013-1-16,78.0,69.9,64.0,65.0,59.6,50.0,94,72,39,0.00,40.00,12,4,18,0.00
2013-1-17,76.0,68.0,60.0,57.0,53.4,50.0,74,60,45,0.00,40.00,8,5,14,0.00
2013-1-18,75.0,67.9,60.0,58.0,48.2,-99.9,78,61,54,0.00,40.00,15,7,25,0.00
2013-1-19,76.0,68.6,63.0,55.0,48.5,36.0,69,51,24,0.00,40.00,23,16,36,0.00
2013-1-20,79.0,69.8,64.0,55.0,46.7,37.0,70,45,29,0.00,40.00,23,10,40,0.00
2013-1-21,76.0,67.6,61.0,61.0,56.0,50.0,83,67,45,0.00,40.00,9,5,28,0.00
2013-1-22,77.0,69.6,63.0,61.0,57.6,52.0,81,67,48,0.00,40.00,14,7,33,0.00
2013-1-23,77.0,69.7,64.0,62.0,56.4,47.0,79,64,44,0.00,40.00,14,7,34,0.00
2013-1-24,77.0,69.1,63.0,61.0,56.5,52.0,81,65,49,0.00,40.00,9,5,14,0.00
2013-1-25,77.0,69.5,63.0,64.0,58.3,54.0,83,68,51,0.00,40.00,8,4,14,0.00
2013-1-26,77.0,70.1,65.0,63.0,57.7,50.0,86,66,46,0.00,40.00,10,5,15,0.00
2013-1-27,78.0,69.4,63.0,58.0,54.6,50.0,70,60,47,0.00,40.00,14,6,19,0.00
2013-1-28,75.0,69.4,64.0,61.0,57.5,54.0,75,66,59,0.00,40.00,11,5,16,0.00
2013-1-29,76.0,69.1,65.0,66.0,59.5,55.0,93,72,53,0.00,40.00,9,5,15,0.00
2013-1-30,75.0,69.0,64.0,65.0,63.1,60.0,97,83,66,0.00,40.00,10,6,17,0.29
2013-1-31,76.0,70.8,64.0,64.0,60.5,57.0,84,71,58,0.00,40.00,23,7,34,0.00
2013-2-1,78.0,71.3,66.0,59.0,53.8,48.0,78,56,35,0.00,40.00,27,21,46,0.00
2013-2-2,78.0,71.6,64.0,61.0,51.6,34.0,71,51,26,0.00,40.00,21,8,43,0.00
2013-2-3,78.0,68.1,60.0,57.0,53.4,47.0,81,60,43,0.00,40.00,20,8,33,0.00
2013-2-4,77.0,68.8,63.0,59.0,54.0,50.0,74,60,44,0.00,40.00,16,8,29,0.00
2013-2-5,78.0,69.7,65.0,60.0,56.0,49.0,76,63,39,0.00,40.00,22,10,40,0.00
2013-2-6,78.0,70.1,65.0,62.0,58.2,55.0,83,67,48,0.00,40.00,9,5,19,0.00
2013-2-7,77.0,70.4,67.0,64.0,61.4,57.0,86,74,52,0.00,40.00,10,6,27,0.02
2013-2-8,78.0,70.4,64.0,63.0,58.9,53.0,86,68,49,0.00,40.00,9,5,16,0.00
2013-2-9,79.0,70.5,63.0,60.0,55.3,50.0,71,59,44,0.00,40.00,19,8,35,0.00
2013-2-10,78.0,72.1,66.0,61.0,55.8,50.0,76,58,40,0.00,40.00,21,11,37,0.00
2013-2-11,78.0,71.3,67.0,59.0,53.6,42.0,67,54,38,0.00,40.00,20,10,37,0.00
2013-2-12,76.0,69.1,65.0,55.0,52.9,50.0,67,57,43,0.00,40.00,20,10,35,0.00
2013-2-13,76.0,68.1,63.0,55.0,50.1,47.0,68,53,40,0.00,40.00,13,8,24,0.00
2013-2-14,77.0,68.8,63.0,56.0,50.8,45.0,64,53,38,0.00,40.00,17,8,30,0.00
2013-2-15,77.0,69.7,62.0,61.0,53.0,45.0,79,56,36,0.00,40.00,29,10,49,0.00
2013-2-16,75.0,69.2,66.0,57.0,53.8,50.0,72,59,45,0.00,40.00,31,26,52,0.00
2013-2-17,73.0,68.3,65.0,57.0,52.9,48.0,67,58,52,0.00,40.00,33,25,62,0.00
2013-2-18,73.0,68.3,65.0,56.0,53.3,49.0,66,59,54,0.00,40.00,38,24,68,0.00
2013-2-19,74.0,68.7,65.0,55.0,51.8,49.0,62,55,41,0.00,40.00,25,21,51,0.00
2013-2-20,76.0,70.1,66.0,57.0,53.4,49.0,69,56,43,0.00,40.00,28,21,48,0.00
2013-2-21,76.0,69.2,62.0,61.0,57.8,52.0,84,68,50,0.00,40.00,19,6,36,0.00
2013-2-22,77.0,71.3,67.0,64.0,56.9,48.0,87,61,44,0.00,40.00,25,11,40,0.00
2013-2-23,77.0,70.9,67.0,62.0,55.7,52.0,82,59,47,0.00,40.00,23,10,39,0.00
2013-2-24,77.0,69.8,65.0,56.0,54.4,53.0,67,58,48,0.00,40.00,27,20,45,0.00
2013-2-25,78.0,70.4,65.0,60.0,55.2,52.0,69,59,43,0.00,40.00,27,17,46,0.00
2013-2-26,78.0,69.6,66.0,59.0,52.1,48.0,70,55,37,0.00,40.00,28,17,47,0.00
2013-2-27,75.0,69.2,65.0,56.0,51.7,47.0,69,54,45,0.00,40.00,22,15,43,0.00
2013-2-28,76.0,69.1,64.0,53.0,49.7,43.0,62,51,41,0.00,40.00,21,13,41,0.00
2013-3-1,74.0,68.6,65.0,54.0,49.8,45.0,68,52,36,0.00,40.00,24,19,58,0.00
2013-3-2,79.0,70.2,65.0,56.0,51.1,46.0,66,52,35,0.00,40.00,22,13,50,0.00
2013-3-3,77.0,69.8,64.0,58.0,51.7,48.0,70,53,38,0.00,40.00,24,14,43,0.00
2013-3-4,77.0,70.2,65.0,55.0,50.1,43.0,61,49,39,0.00,40.00,14,8,32,0.00
2013-3-5,77.0,70.0,64.0,54.0,50.6,46.0,59,51,36,0.00,40.00,12,8,23,0.00
2013-3-6,75.0,69.8,65.0,59.0,54.5,48.0,75,59,51,0.00,40.00,9,6,18,0.00
2013-3-7,75.0,68.7,62.0,61.0,56.8,51.0,78,66,53,0.00,40.00,9,6,15,0.00
2013-3-8,76.0,68.6,62.0,61.0,56.9,51.0,82,67,48,0.00,40.00,11,5,19,0.00
2013-3-9,78.0,70.4,62.0,64.0,56.6,48.0,81,63,39,0.00,40.00,14,7,21,0.00
2013-3-10,76.0,70.7,65.0,67.0,63.0,58.0,93,77,55,0.00,40.00,12,8,19,0.00
2013-3-11,78.0,70.7,65.0,65.0,61.0,58.0,93,73,52,0.00,40.00,10,6,17,0.13
2013-3-12,77.0,70.4,67.0,64.0,60.4,56.0,83,71,55,0.00,40.00,8,4,13,0.13
2013-3-13,78.0,70.3,62.0,62.0,56.3,53.0,75,62,44,0.00,40.00,10,5,17,0.00
2013-3-14,77.0,70.5,65.0,61.0,58.2,53.0,78,65,55,0.00,40.00,12,5,17,0.00
2013-3-15,69.0,67.1,65.0,66.0,63.6,60.0,99,89,78,0.00,40.00,11,6,18,0.24
2013-3-16,67.0,65.7,64.0,63.0,60.5,56.0,98,84,69,0.00,40.00,11,5,16,0.13
2013-3-17,72.0,67.2,62.0,59.0,54.5,47.0,87,66,43,0.00,40.00,8,5,14,0.13
2013-3-18,78.0,68.8,59.0,56.0,51.2,45.0,78,56,33,0.00,40.00,11,5,18,0.00
2013-3-19,77.0,69.3,60.0,59.0,51.8,47.0,72,55,38,0.00,40.00,9,6,15,0.00
2013-3-20,78.0,69.9,64.0,66.0,56.2,50.0,87,63,42,0.00,40.00,13,6,21,0.00
2013-3-21,78.0,71.7,67.0,67.0,62.2,56.0,94,73,60,0.00,40.00,8,6,14,0.00
2013-3-22,75.0,70.3,66.0,66.0,62.8,58.0,94,77,61,0.00,40.00,13,6,20,0.03
2013-3-23,78.0,70.8,65.0,62.0,60.3,56.0,82,70,49,0.00,40.00,11,5,17,0.00
2013-3-24,78.0,70.7,67.0,65.0,62.5,57.0,93,76,62,0.00,40.00,11,5,15,0.00
2013-3-25,78.0,71.5,65.0,67.0,62.4,56.0,88,74,59,0.00,40.00,9,6,15,0.00
2013-3-26,77.0,71.2,66.0,67.0,63.2,60.0,88,76,63,0.00,40.00,9,5,16,0.00
2013-3-27,78.0,70.8,65.0,64.0,60.9,56.0,83,71,58,0.00,40.00,10,5,14,0.00
2013-3-28,81.0,74.7,68.0,64.0,58.2,52.0,82,58,39,0.00,40.00,17,9,30,0.00
2013-3-29,79.0,70.1,65.0,65.0,60.8,55.0,90,73,47,0.00,40.00,10,5,19,0.14
2013-3-30,74.0,69.4,66.0,67.0,60.6,-99.9,88,78,67,0.00,40.00,9,6,21,0.08
2013-3-31,77.0,68.9,64.0,63.0,56.9,54.0,91,67,47,0.00,40.00,22,8,32,0.00
2013-4-1,73.0,67.2,62.0,56.0,53.0,49.0,72,61,48,0.00,40.00,10,7,17,0.00
2013-4-2,74.0,67.2,60.0,57.0,54.4,51.0,80,64,51,0.00,40.00,18,9,26,0.00
2013-4-3,78.0,69.7,61.0,60.0,53.2,50.0,75,56,40,0.00,40.00,9,5,22,0.00
2013-4-4,81.0,71.2,63.0,55.0,50.9,48.0,66,50,33,0.00,40.00,11,6,17,0.00
2013-4-5,80.0,71.1,63.0,65.0,59.5,48.0,86,68,51,0.00,40.00,8,5,15,0.00
2013-4-6,81.0,71.9,65.0,66.0,60.5,54.0,90,68,55,0.00,40.00,9,4,14,0.00
2013-4-7,78.0,72.5,67.0,67.0,63.8,60.0,93,75,62,0.00,40.00,10,5,25,0.00
2013-4-8,78.0,70.7,66.0,63.0,60.8,57.0,84,72,50,0.00,40.00,9,5,15,0.06
2013-4-9,80.0,71.7,66.0,67.0,63.1,57.0,92,75,54,0.00,40.00,8,6,16,0.10
2013-4-10,78.0,72.5,65.0,67.0,63.5,59.0,94,75,53,0.00,40.00,9,5,14,0.20
2013-4-11,78.0,72.8,65.0,67.0,62.8,58.0,92,72,56,0.00,40.00,9,5,15,0.00
2013-4-12,79.0,72.0,66.0,67.0,62.8,57.0,89,73,58,0.00,40.00,9,6,16,0.04
2013-4-13,83.0,71.9,65.0,69.0,63.5,58.0,91,76,43,0.00,40.00,12,6,23,0.06
2013-4-14,77.0,70.9,66.0,67.0,62.6,60.0,85,76,58,0.00,40.00,9,6,15,0.00
2013-4-15,79.0,71.9,65.0,68.0,62.9,59.0,86,74,55,0.00,40.00,14,6,20,0.00
2013-4-16,78.0,71.5,65.0,68.0,63.8,59.0,94,77,64,0.00,40.00,9,5,13,0.00
2013-4-17,79.0,72.4,66.0,67.0,63.2,52.0,94,74,50,0.00,40.00,10,5,22,0.00
2013-4-18,78.0,73.5,69.0,63.0,59.2,54.0,71,61,49,0.00,40.00,10,7,31,0.01
2013-4-19,78.0,71.3,65.0,65.0,60.5,53.0,77,69,56,0.00,40.00,9,5,15,0.01
2013-4-20,79.0,71.5,65.0,66.0,61.6,55.0,86,71,61,0.00,40.00,10,5,15,0.00
2013-4-21,80.0,72.2,65.0,65.0,62.2,58.0,87,72,53,0.00,40.00,9,5,16,0.00
2013-4-22,78.0,71.5,65.0,67.0,63.1,59.0,92,76,62,0.00,40.00,12,6,19,0.00
2013-4-23,81.0,73.7,67.0,67.0,63.1,58.0,93,71,45,0.00,40.00,11,6,20,0.00
2013-4-24,83.0,73.5,65.0,68.0,63.1,57.0,89,71,51,0.00,40.00,12,6,19,0.00
2013-4-25,80.0,73.0,67.0,68.0,63.5,58.0,90,73,54,0.00,40.00,9,5,26,0.00
2013-4-26,80.0,73.1,67.0,63.0,58.5,55.0,71,61,42,0.00,40.00,15,8,28,0.00
2013-4-27,80.0,72.8,65.0,65.0,58.8,54.0,82,63,46,0.00,40.00,9,6,16,0.00
2013-4-28,81.0,73.4,67.0,64.0,60.8,57.0,83,66,47,0.00,40.00,16,7,24,0.00
2013-4-29,79.0,72.6,67.0,65.0,62.2,58.0,82,70,58,0.00,40.00,16,7,22,0.00
2013-4-30,80.0,73.2,66.0,68.0,63.3,58.0,90,72,54,0.00,40.00,10,6,17,0.00
2013-5-1,80.0,72.9,66.0,64.0,60.0,56.0,82,65,50,0.00,40.00,11,5,21,0.00
2013-5-2,80.0,72.7,67.0,67.0,62.6,58.0,90,71,56,0.00,40.00,10,6,17,0.01
2013-5-3,79.0,71.8,66.0,66.0,62.9,58.0,91,75,54,0.00,40.00,11,7,17,0.11
2013-5-4,72.0,69.4,67.0,68.0,65.2,61.0,97,86,74,0.00,40.00,10,6,17,0.35
2013-5-5,76.0,70.0,65.0,67.0,65.0,63.0,97,85,65,0.00,40.00,9,5,15,0.47
2013-5-6,78.0,72.4,69.0,67.0,65.3,62.0,91,79,58,0.00,40.00,9,6,16,0.01
2013-5-7,81.0,74.6,69.0,68.0,63.6,57.0,95,71,47,0.00,40.00,9,5,16,0.00
2013-5-8,81.0,74.0,66.0,67.0,61.9,58.0,84,67,53,0.00,40.00,9,5,16,0.00
2013-5-9,82.0,74.6,68.0,68.0,64.8,62.0,90,73,55,0.00,40.00,14,6,21,0.00
2013-5-10,83.0,74.0,68.0,71.0,63.6,-99.9,94,76,57,0.00,40.00,13,5,23,0.13
2013-5-11,80.0,73.7,70.0,71.0,66.5,-99.9,99,82,63,0.00,40.00,9,5,23,0.19
2013-5-12,82.0,75.0,71.0,69.0,67.1,66.0,89,77,62,0.00,40.00,9,5,16,0.10
2013-5-13,81.0,74.2,70.0,70.0,67.0,64.0,96,79,59,0.00,40.00,10,5,25,0.02
2013-5-14,80.0,74.6,70.0,71.0,64.5,56.0,96,72,55,0.00,40.00,13,7,27,0.02
2013-5-15,82.0,75.1,71.0,67.0,61.1,55.0,79,63,43,0.00,40.00,14,8,35,0.00
2013-5-16,81.0,71.0,70.0,67.0,43.4,-99.9,74,58,43,0.00,40.00,17,10,32,0.00
2013-5-17,81.0,74.8,70.0,66.0,57.2,-99.9,85,58,44,0.00,40.00,18,10,31,0.00
2013-5-18,79.0,72.2,67.0,68.0,64.2,58.0,94,77,57,0.00,40.00,10,6,17,1.32
2013-5-19,76.0,71.5,68.0,69.0,66.5,65.0,92,84,71,0.00,40.00,11,6,16,1.07
2013-5-20,79.0,72.3,67.0,68.0,64.3,59.0,96,78,53,0.00,40.00,10,5,15,0.78
2013-5-21,80.0,73.1,66.0,65.0,62.1,58.0,87,70,48,0.00,40.00,9,4,14,0.09
2013-5-22,83.0,74.2,66.0,68.0,63.0,58.0,87,69,46,0.00,40.00,14,7,24,0.00
2013-5-23,82.0,74.5,67.0,70.0,65.9,61.0,92,76,55,0.00,40.00,10,5,13,0.00
2013-5-24,80.0,74.4,69.0,70.0,64.7,56.0,91,73,49,0.00,40.00,13,6,38,0.00
2013-5-25,80.0,73.5,70.0,71.0,63.6,57.0,94,72,53,0.00,40.00,15,8,35,0.09
2013-5-26,79.0,74.8,71.0,68.0,61.4,52.0,76,64,49,0.00,40.00,23,10,42,0.01
2013-5-27,81.0,74.5,69.0,66.0,63.5,58.0,86,70,51,0.00,40.00,11,6,23,0.00
2013-5-28,81.0,75.1,69.0,69.0,65.7,61.0,87,73,60,0.00,40.00,8,5,14,0.00
2013-5-29,80.0,74.1,70.0,70.0,66.9,60.0,96,79,64,0.00,40.00,7,4,11,0.07
2013-5-30,80.0,73.5,67.0,68.0,65.6,62.0,89,77,64,0.00,40.00,7,5,12,0.00
2013-5-31,78.0,72.4,66.0,70.0,65.7,60.0,93,79,68,0.00,40.00,7,4,11,0.00
2013-6-1,82.0,75.4,67.0,70.0,63.9,58.0,92,68,54,0.00,40.00,18,8,29,0.00
2013-6-2,82.0,75.9,70.0,68.0,62.5,56.0,90,64,54,0.00,40.00,14,9,31,0.00
2013-6-3,81.0,76.3,69.0,62.0,58.5,55.0,73,55,46,0.00,40.00,17,9,32,0.00
2013-6-4,81.0,75.0,68.0,65.0,58.7,54.0,70,58,47,0.00,40.00,17,8,36,0.00
2013-6-5,81.0,74.6,69.0,62.0,57.3,53.0,68,55,49,0.00,40.00,22,13,40,0.00
2013-6-6,82.0,74.6,70.0,62.0,57.3,51.0,65,55,46,0.00,40.00,17,12,32,0.00
2013-6-7,81.0,74.6,70.0,65.0,57.3,51.0,78,55,46,0.00,40.00,16,9,28,0.00
2013-6-8,80.0,74.6,70.0,66.0,59.8,54.0,81,60,45,0.00,40.00,19,9,30,0.00
2013-6-9,82.0,74.8,70.0,68.0,62.7,56.0,78,67,53,0.00,40.00,8,5,15,0.00
2013-6-10,82.0,73.9,68.0,65.0,61.9,58.0,82,67,48,0.00,40.00,9,4,15,0.00
2013-6-11,80.0,73.3,67.0,66.0,63.3,59.0,87,72,54,0.00,40.00,10,5,15,0.00
2013-6-12,82.0,74.7,66.0,67.0,60.7,53.0,79,63,46,0.00,40.00,11,7,36,0.00
2013-6-13,82.0,75.4,71.0,67.0,59.5,53.0,87,59,41,0.00,40.00,23,10,41,0.00
2013-6-14,83.0,75.5,71.0,63.0,59.7,52.0,75,59,48,0.00,40.00,19,8,32,0.00
2013-6-15,81.0,74.9,68.0,64.0,59.3,52.0,79,59,40,0.00,40.00,12,7,25,0.00
2013-6-16,81.0,75.3,69.0,66.0,58.4,51.0,65,56,48,0.00,40.00,13,7,22,0.00
2013-6-17,82.0,76.1,72.0,67.0,60.6,55.0,85,60,39,0.00,40.00,16,9,28,0.00
2013-6-18,81.0,73.9,69.0,67.0,62.4,57.0,82,68,51,0.00,40.00,10,6,22,0.00
2013-6-19,81.0,75.1,68.0,66.0,63.3,55.0,85,68,46,0.00,40.00,9,6,19,0.00